TimeEDT,TemperatureF,Dew PointF,Humidity,Sea Level PressureIn,VisibilityMPH,Wind Direction,Wind SpeedMPH,Gust SpeedMPH,PrecipitationIn,Events,Conditions,WindDirDegrees,DateUTC
12:53 AM,59.0,37.9,46,30.08,10.0,NNE,5.8,-,N/A,,Clear,20,2013-05-18 04:53:00
1:53 AM,57.9,39.9,51,30.07,10.0,NE,9.2,-,N/A,,Clear,40,2013-05-18 05:53:00
2:53 AM,57.0,42.1,57,30.05,10.0,NE,6.9,-,N/A,,Partly Cloudy,50,2013-05-18 06:53:00
3:53 AM,55.9,43.0,62,30.05,10.0,ENE,5.8,-,N/A,,Clear,60,2013-05-18 07:53:00
4:53 AM,57.0,43.0,59,30.05,10.0,East,5.8,-,N/A,,Clear,80,2013-05-18 08:53:00
5:53 AM,57.9,44.1,60,30.06,10.0,Calm,Calm,-,N/A,,Scattered Clouds,0,2013-05-18 09:53:00
6:53 AM,57.9,44.1,60,30.07,10.0,East,5.8,-,N/A,,Overcast,80,2013-05-18 10:53:00
7:53 AM,59.0,46.0,62,30.08,10.0,NE,3.5,-,N/A,,Overcast,40,2013-05-18 11:53:00
8:53 AM,59.0,46.0,62,30.10,10.0,NE,6.9,-,N/A,,Overcast,50,2013-05-18 12:53:00
9:53 AM,62.1,46.9,58,30.09,10.0,East,4.6,-,N/A,,Overcast,80,2013-05-18 13:53:00
10:53 AM,64.9,48.0,54,30.08,10.0,East,5.8,-,N/A,,Overcast,100,2013-05-18 14:53:00
11:53 AM,66.9,48.9,52,30.08,10.0,East,4.6,-,N/A,,Overcast,100,2013-05-18 15:53:00
12:53 PM,70.0,51.1,51,30.07,10.0,Calm,Calm,-,N/A,,Mostly Cloudy,0,2013-05-18 16:53:00
1:53 PM,71.1,52.0,51,30.06,10.0,Calm,Calm,-,N/A,,Overcast,0,2013-05-18 17:53:00
3:53 PM,77.0,55.9,48,30.02,10.0,Calm,Calm,-,N/A,,Mostly Cloudy,0,2013-05-18 19:53:00
4:53 PM,77.0,57.0,50,30.01,10.0,NE,5.8,-,N/A,,Partly Cloudy,40,2013-05-18 20:53:00
5:53 PM,78.1,55.9,46,30.00,10.0,East,3.5,-,N/A,,Clear,80,2013-05-18 21:53:00
6:53 PM,73.9,53.1,48,30.00,10.0,ENE,11.5,-,N/A,,Scattered Clouds,60,2013-05-18 22:53:00
7:53 PM,71.1,48.9,45,30.01,10.0,NE,10.4,-,N/A,,Clear,50,2013-05-18 23:53:00
8:53 PM,68.0,48.9,50,30.01,10.0,NE,6.9,-,N/A,,Clear,50,2013-05-19 00:53:00
9:53 PM,66.0,48.9,54,30.01,10.0,NE,6.9,-,N/A,,Partly Cloudy,50,2013-05-19 01:53:00
10:53 PM,63.0,48.0,58,30.01,10.0,ENE,5.8,-,N/A,,Clear,60,2013-05-19 02:53:00